Park Rapids, MN

11:13 AM CST on February 20, 2017 (GMT -0600)
Park Rapids Municipal

Weather History for KPKD - April, 2013

Change the Weather History Date:

Tuesday, April 2, 2013

  Actual Average Record
Temperature  
Mean Temperature 18 °F -  
Max Temperature 33 °F 45 °F 69 °F (1981)
Min Temperature 3 °F 22 °F -8 °F (1975)
Degree Days  
Heating Degree Days 48    
Moisture  
Dew Point 8 °F    
Average Humidity 65    
Maximum Humidity 88    
Minimum Humidity 42    
Precipitation  
Precipitation 0.00 in - - ()
Sea Level Pressure  
Sea Level Pressure 30.35 in    
Wind  
Wind Speed 6 mph (NW)    
Max Wind Speed 10 mph    
Max Gust Speed -    
Visibility 10 miles    
Events      
Averages and records for this station are not official NWS values.
T = Trace of Precipitation, MM = Missing Value Source: NWS Daily Summary

Daily Weather History Graph

Daily Weather History Graph

Search for Another Location

Airport or City:

Trip Planner

Search our weather history database for the weather conditions in past years. The results will help you decide how hot, cold, wet, or windy it might be!

Date:

Astronomy

Apr. 02, 2013 Rise Set
Actual Time 6:56 AM CDT 7:51 PM CDT
Civil Twilight 6:26 AM CDT 8:22 PM CDT
Nautical Twilight 5:49 AM CDT 8:59 PM CDT
Astronomical Twilight 5:10 AM CDT 9:38 PM CDT
Moon 2:12 AM CDT (4/2) 11:33 AM CDT (4/2)
Length of Visible Light 13h 56m
Length of Day
12h 54m
Waning Gibbous, 55% of the Moon is Illuminated
Apr 2
Waning Gibbous
Apr 2
Last Quarter
Apr 10
New
Apr 18
First Quarter
Apr 25
Full

Hourly Weather History & Observations

Time (CDT) Temp. Windchill Dew Point Humidity Pressure Visibility Wind Dir Wind Speed Gust Speed Precip Events Conditions
12:53 AM 10.0 °F 0.4 °F 6.1 °F 84% 30.29 in 10.0 mi WNW 5.8 mph - N/A   Clear
1:53 AM 9.0 °F -2.2 °F 5.0 °F 84% 30.30 in 10.0 mi West 6.9 mph - N/A   Clear
2:53 AM 8.1 °F -4.3 °F 3.9 °F 83% 30.29 in 10.0 mi WNW 8.1 mph - N/A   Clear
3:53 AM 7.0 °F -4.5 °F 3.0 °F 84% 30.30 in 10.0 mi WNW 6.9 mph - N/A   Clear
4:53 AM 7.0 °F 0.1 °F 3.0 °F 84% 30.31 in 10.0 mi WNW 3.5 mph - N/A   Clear
5:53 AM 7.0 °F -4.5 °F 3.9 °F 87% 30.32 in 10.0 mi NW 6.9 mph - N/A   Mostly Cloudy
6:53 AM 3.9 °F -6.9 °F 1.0 °F 88% 30.33 in 10.0 mi West 5.8 mph - N/A   Clear
7:53 AM 8.1 °F -0.5 °F 5.0 °F 87% 30.35 in 10.0 mi WNW 4.6 mph - N/A   Partly Cloudy
8:53 AM 10.9 °F 4.7 °F 8.1 °F 88% 30.36 in 10.0 mi WSW 3.5 mph - N/A   Clear
9:53 AM 17.1 °F - 12.0 °F 81% 30.37 in 10.0 mi Calm Calm - N/A   Clear
10:53 AM 26.1 °F 16.8 °F 12.9 °F 58% 30.37 in 10.0 mi NNW 9.2 mph - N/A   Clear
11:53 AM 28.0 °F 19.3 °F 12.0 °F 51% 30.37 in 10.0 mi WNW 9.2 mph - N/A   Partly Cloudy
12:53 PM 30.0 °F 21.1 °F 12.0 °F 47% 30.37 in 10.0 mi NNW 10.4 mph - N/A   Scattered Clouds
1:53 PM 30.9 °F 22.8 °F 10.0 °F 42% 30.37 in 10.0 mi NNW 9.2 mph - N/A   Clear
2:53 PM 30.9 °F 22.8 °F 12.0 °F 46% 30.36 in 10.0 mi WNW 9.2 mph - N/A   Clear
3:53 PM 30.9 °F 24.3 °F 12.9 °F 47% 30.36 in 10.0 mi NNW 6.9 mph - N/A   Clear
4:53 PM 32.0 °F 26.4 °F 12.0 °F 44% 30.36 in 10.0 mi WNW 5.8 mph - N/A   Clear
5:53 PM 32.0 °F 23.6 °F 12.9 °F 45% 30.37 in 10.0 mi NW 10.4 mph - N/A   Clear
6:53 PM 30.9 °F 24.3 °F 10.9 °F 43% 30.38 in 10.0 mi NNW 6.9 mph - N/A   Clear
7:53 PM 28.0 °F 20.0 °F 10.0 °F 47% 30.38 in 10.0 mi North 8.1 mph - N/A   Clear
8:53 PM 25.0 °F 19.3 °F 9.0 °F 51% 30.39 in 10.0 mi NNW 4.6 mph - N/A   Clear
9:53 PM 24.1 °F 19.7 °F 8.1 °F 51% 30.39 in 10.0 mi NNW 3.5 mph - N/A   Clear
10:53 PM 18.0 °F - 7.0 °F 62% 30.39 in 10.0 mi Calm Calm - N/A   Clear
11:53 PM 14.0 °F - 6.1 °F 71% 30.39 in 10.0 mi Calm Calm - N/A   Clear